This is the latest recevied weather packets stored in our database for station/object K7LER. If no packets are shown the sender has not sent any weather packets the latest 1 day(s).
| Time | Temp. | Humidity | Pressure | Rain* | Wind** | Luminosity | Snow |
|---|---|---|---|---|---|---|---|
| 1778022334 | 16.67° C | 73% | 1015.7 hPa | 0 mm | 0 m/s | 548 W/m² | - |
| 1778022050 | 16.11° C | 74% | 1015.6 hPa | 0 mm | 0 m/s | 390 W/m² | - |
| 1778021733 | 16.11° C | 75% | 1015.8 hPa | 0 mm | 0 m/s | 397 W/m² | - |
| 1778021434 | 16.11° C | 75% | 1015.7 hPa | 0 mm | 0 m/s | 334 W/m² | - |
| 1778021149 | 15.56° C | 75% | 1015.8 hPa | 0 mm | 0 m/s | 290 W/m² | - |
| 1778020835 | 15.56° C | 76% | 1015.8 hPa | 0 mm | 0 m/s | 306 W/m² | - |
| 1778020533 | 15.56° C | 76% | 1015.9 hPa | 0 mm | 0 m/s | 322 W/m² | - |
| 1778020251 | 15.56° C | 76% | 1015.9 hPa | 0 mm | 0 m/s | 283 W/m² | - |
| 1778019933 | 15.56° C | 76% | 1016.1 hPa | 0 mm | 0 m/s | 265 W/m² | - |
| 1778019633 | 15.56° C | 77% | 1016.1 hPa | 0 mm | 0 m/s | 271 W/m² | - |
| 1778019341 | 15.56° C | 76% | 1016 hPa | 0 mm | 0 m/s | 278 W/m² | - |
| 1778019033 | 15.56° C | 76% | 1016 hPa | 0 mm | 0 m/s | 265 W/m² | - |
| 1778018733 | 15.56° C | 76% | 1016 hPa | 0 mm | 0 m/s | 258 W/m² | - |
| 1778018449 | 15.56° C | 77% | 1016.1 hPa | 0 mm | 0 m/s | 262 W/m² | - |
| 1778018133 | 15.56° C | 76% | 1016.1 hPa | 0 mm | 0 m/s | 251 W/m² | - |
| 1778017834 | 15° C | 77% | 1016.2 hPa | 0 mm | 0 m/s | 262 W/m² | - |
| 1778017550 | 15° C | 78% | 1016.2 hPa | 0 mm | 0 m/s | 250 W/m² | - |
| 1778017232 | 15° C | 78% | 1016.2 hPa | 0 mm | 0 m/s | 223 W/m² | - |
| 1778016933 | 15° C | 78% | 1016.3 hPa | 0 mm | 0 m/s | 218 W/m² | - |
| 1778016646 | 15° C | 78% | 1016.3 hPa | 0 mm | 0 m/s | 218 W/m² | - |
| 1778016335 | 15° C | 78% | 1016.2 hPa | 0 mm | 0 m/s | 227 W/m² | - |
| 1778016035 | 15° C | 78% | 1016.2 hPa | 0 mm | 0 m/s | 230 W/m² | - |
| 1778015761 | 15° C | 78% | 1016.2 hPa | 0 mm | 0 m/s | 236 W/m² | - |
| 1778015434 | 15° C | 78% | 1016.3 hPa | 0 mm | 0 m/s | 216 W/m² | - |
| 1778015134 | 15° C | 78% | 1016.2 hPa | 0 mm | 0 m/s | 220 W/m² | - |
* Rain latest hour (hover to see other rain measurements)
** Current wind speed in m/s (hover to see current wind gust speed)